Regional Weather Roundup
Issued by NWS

Home | Current Version | Previous Version | Graphics & Text | Print | Product List | Glossary On
Versions: 1 2 3 4 5 6 7 8 9 10 11 12 13 14 15 16 17 18 19 20 21 22 23 24 25 26 27 28 29 30 31 32 33 34 35 36 37 38 39 40 41 42 43 44 45 46 47 48 49 50
000
ASUS45 KABQ 241801
RWRNM
NEW MEXICO REGIONAL WEATHER ROUNDUP
NATIONAL WEATHER SERVICE ALBUQUERQUE NM
1100 AM MST FRI FEB 24 2017

NOTE: "FAIR" MEANS FEW OR NO CLOUDS BELOW 12,000 FEET AGL WITH NO
       SIGNIFICANT WEATHER OR OBSTRUCTIONS TO VISION.

      THIS PRODUCT IS RELEASED AS TWO VERSIONS.  ONE VERSION NEAR
      THE TOP OF THE HOUR CONTAINING PRELIMINARY DATA FROM ALBUQUERQUE
      AND OTHER STATIONS.  A FINAL VERSION WITH ADDITIONAL DATA IS
      ISSUED ABOUT 10 MINUTES AFTER THE HOUR.

NMZ501-503-504-510>518-241900-
NORTHWEST PLATEAU/NORTHCENTRAL MOUNTAINS

CITY           SKY/WX    TMP DP  RH WIND       PRES   REMARKS
FARMINGTON     CLOUDY    34   4  28 W21G32    29.95R WCI  22
6HR MIN TEMP:  21; 6HR MAX TEMP:  36;

LOS ALAMOS     FAIR      29   4  33 NW7G17    29.92S WCI  22
SANTA FE       PTSUNNY   35   1  23 W9G25     29.92R WCI  28
6HR MIN TEMP:  19; 6HR MAX TEMP:  37;

TAOS           FAIR      30   7  37 W22G28    29.88S WCI  17

$$
NMZ402-403-502-505>509-241900-
WESTCENTRAL MOUNTAINS/SOUTHWEST MOUNTAINS

CITY           SKY/WX    TMP DP  RH WIND       PRES   REMARKS
GALLUP         FAIR      35   6  29 W12G28    29.99S WCI  27
6HR MIN TEMP:  20; 6HR MAX TEMP:  35;

GRANTS         FAIR      35   3  26 W18G30    29.99S WCI  25
SILVER CITY    FAIR      43  11  26 NW10      30.06S

$$
NMZ407-409-411-412-241900-
SOUTHERN DESERTS

CITY           SKY/WX    TMP DP  RH WIND       PRES   REMARKS
DEMING         FAIR      51  11  20 W21       30.05F
6HR MIN TEMP:  31; 6HR MAX TEMP:  51;

LAS CRUCES     FAIR      49   8  19 W29G36    30.03S
HOLLOMAN AFB   FAIR      50   4  15 N3        30.05S
ALAMOGORDO     FAIR      48   5  17 CALM      30.02F
T OR C         FAIR      47   8  20 S6        29.99S
6HR MIN TEMP:  32; 6HR MAX TEMP:  47;


$$
NMZ519>523-241900-
CENTRAL VALLEYS/CENTRAL HIGHLANDS

CITY           SKY/WX    TMP DP  RH WIND       PRES   REMARKS
ALBUQUERQUE    FAIR      40   1  19 W20G29    29.99R WCI  30
6HR MIN TEMP:  30; 6HR MAX TEMP:  40;

DOUBLE EAGLE   MOSUNNY   39   3  22 W18G24    29.99R WCI  30
MORIARTY ARPT  FAIR      40   2  20 W24G33    29.96R WCI  29
6HR MIN TEMP:  25; 6HR MAX TEMP:  40;

CLINES CORNERS FAIR      34   3  27 NW24G38   29.90R WCI  21
6HR MIN TEMP:  20; 6HR MAX TEMP:  34;

BELEN          FAIR      43   3  19 NW16G28   30.01R
6HR MIN TEMP:  27; 6HR MAX TEMP:  43;

SOCORRO        FAIR      48   9  20 NW13G26   29.98S
6HR MIN TEMP:  35; 6HR MAX TEMP:  48;


$$
NMZ524>526-539-540-241900-
SOUTHCENTRAL MOUNTAINS

CITY           SKY/WX    TMP DP  RH WIND       PRES   REMARKS
RUIDOSO        NOT AVBL

$$
NMZ527>531-241900-
NORTHEAST HIGHLANDS/NORTHEAST PLAINS

CITY           SKY/WX    TMP DP  RH WIND       PRES   REMARKS
LAS VEGAS      FAIR      36  -2  20 W13G24    29.85S WCI  27
6HR MIN TEMP:  22; 6HR MAX TEMP:  36;

RATON          MIX PCPN  34   7  32 W23G36    29.84R WCI  22
6HR MIN TEMP:   9; 6HR MAX TEMP:  39; 6HR PCP: TRACE;

CLAYTON        FAIR      35  17  47 N8        29.92R WCI  29
6HR MIN TEMP:  18; 6HR MAX TEMP:  35;


$$
NMZ532>537-241900-
EASTCENTRAL PLAINS

CITY           SKY/WX    TMP DP  RH WIND       PRES   REMARKS
TUCUMCARI      FAIR      40  21  46 E7        29.92F
6HR MIN TEMP:  22; 6HR MAX TEMP:  40;

CANNON AFB     FAIR      44  25  46 VRB5      29.92F
6HR MIN TEMP:  24; 6HR MAX TEMP:  45;

CLOVIS AIRPORT FAIR      41  23  48 S5        29.94F

$$
NMZ028-029-538-241900-
SOUTHEAST PLAINS

CITY           SKY/WX    TMP DP  RH WIND       PRES   REMARKS
ROSWELL        FAIR      56   5  13 NW12        N/A
6HR MIN TEMP:  35; 6HR MAX TEMP:  57;

ARTESIA        FAIR      55   9  15 VRB6G12   29.96F
CARLSBAD       FAIR      61   3  10 W22G33    29.94R
6HR MIN TEMP:  48; 6HR MAX TEMP:  61;

HOBBS          SUNNY     52  18  25 NW6       29.98S


$$



USA.gov is the U.S. government's official web portal to all federal, state and local government web resources and services.